,,Stat6,,Stat2,,Stat8,,Stat9,,Stat10,,Wind1,,Wind1,
time,status,PA1M_AVG,status,PR1M_SUM,status,RH1M_AVG,status,SR1M_AVG,status,TA1M_AVG,status,W1dAve1m,status,W1sAve1m,
2004-10-07, 00:00:00,VALID,920.768,VALID,0,VALID,97.0056,VALID,0,VALID,16.9872,VALID,117,VALID,0,
2004-10-07, 00:01:00,VALID,920.754,VALID,0,VALID,97.293,VALID,-0.0169808,VALID,17.0196,VALID,117,VALID,0.263822,
2004-10-07, 00:02:00,VALID,920.739,VALID,0,VALID,97.1366,VALID,-0.0169808,VALID,17.0644,VALID,117,VALID,0.515262,
2004-10-07, 00:03:00,VALID,920.708,VALID,0,VALID,96.5313,VALID,-0.0339617,VALID,17.0842,VALID,117,VALID,0.417683,
2004-10-07, 00:04:00,VALID,920.713,VALID,0,VALID,95.9909,VALID,-0.0339617,VALID,17.0881,VALID,117,VALID,0.0359375,
2004-10-07, 00:05:00,VALID,920.715,VALID,0,VALID,96.1091,VALID,-0.0339617,VALID,17.0713,VALID,117,VALID,0.392933,
2004-10-07, 00:06:00,VALID,920.706,VALID,0,VALID,96.6025,VALID,-0.0509425,VALID,17.152,VALID,117,VALID,0,
2004-10-07, 00:07:00,VALID,920.693,VALID,0,VALID,96.3991,VALID,-0.0339617,VALID,17.2004,VALID,117,VALID,0,
2004-10-07, 00:08:00,VALID,920.666,VALID,0,VALID,96.3368,VALID,-0.0339617,VALID,17.2451,VALID,117,VALID,0.14577,
2004-10-07, 00:09:00,VALID,920.646,VALID,0,VALID,95.6781,VALID,-0.0169808,VALID,17.3488,VALID,117,VALID,0.2766,
2004-10-07, 00:10:00,VALID,920.625,VALID,0,VALID,94.8439,VALID,-0.0509425,VALID,17.4076,VALID,117,VALID,0,
2004-10-07, 00:11:00,VALID,920.616,VALID,0,VALID,94.5438,VALID,-0.0339617,VALID,17.3781,VALID,117,VALID,0.113814,
2004-10-07, 00:12:00,VALID,920.592,VALID,0,VALID,94.9609,VALID,-0.0339617,VALID,17.3678,VALID,117,VALID,0.31064,
2004-10-07, 00:13:00,VALID,920.571,VALID,0,VALID,95.2953,VALID,-0.0169808,VALID,17.3585,VALID,117,VALID,0.577128,
2004-10-07, 00:14:00,VALID,920.548,VALID,0,VALID,95.069,VALID,-0.0339617,VALID,17.3103,VALID,117,VALID,0.725977,
2004-10-07, 00:15:00,VALID,920.538,VALID,0,VALID,94.7447,VALID,-0.0679233,VALID,17.2133,VALID,117,VALID,0.847656,
2004-10-07, 00:16:00,VALID,920.534,VALID,0,VALID,94.9304,VALID,-0.0169808,VALID,17.0939,VALID,117,VALID,0.717507,
2004-10-07, 00:17:00,VALID,920.524,VALID,0,VALID,94.9774,VALID,-0.0339617,VALID,16.9906,VALID,116,VALID,0.282493,
2004-10-07, 00:18:00,VALID,920.518,VALID,0,VALID,94.952,VALID,0.0679233,VALID,16.8929,VALID,116,VALID,0,
2004-10-07, 00:19:00,VALID,920.511,VALID,0,VALID,94.9431,VALID,0.0679233,VALID,16.8151,VALID,116,VALID,0,
2004-10-07, 00:20:00,VALID,920.503,VALID,0,VALID,94.2666,VALID,0.0339617,VALID,16.7127,VALID,116,VALID,0.00109012,
2004-10-07, 00:21:00,VALID,920.496,VALID,0,VALID,95.0779,VALID,0.0339617,VALID,16.5963,VALID,116,VALID,0.116071,
2004-10-07, 00:22:00,VALID,920.487,VALID,0,VALID,96.3037,VALID,0.0339617,VALID,16.5445,VALID,116,VALID,0.2742,
2004-10-07, 00:23:00,VALID,920.482,VALID,0,VALID,96.4092,VALID,0.0339617,VALID,16.4896,VALID,116,VALID,0.0886719,
2004-10-07, 00:24:00,VALID,920.49,VALID,0,VALID,96.3355,VALID,0.0679233,VALID,16.4541,VALID,116,VALID,0,
2004-10-07, 00:25:00,VALID,920.494,VALID,0,VALID,96.8085,VALID,0.0849042,VALID,16.4249,VALID,116,VALID,0.0396076,
2004-10-07, 00:26:00,VALID,920.507,VALID,0,VALID,97.0031,VALID,0.0849042,VALID,16.418,VALID,116,VALID,0.311357,
2004-10-07, 00:27:00,VALID,920.507,VALID,0,VALID,97.4736,VALID,0.0679233,VALID,16.4214,VALID,116,VALID,0.798295,
2004-10-07, 00:28:00,VALID,920.509,VALID,0,VALID,97.9212,VALID,0.0849042,VALID,16.4184,VALID,116,VALID,0.861328,
2004-10-07, 00:29:00,VALID,920.497,VALID,0,VALID,98.0725,VALID,0.101885,VALID,16.4311,VALID,119,VALID,1.0474,
2004-10-07, 00:30:00,VALID,920.47,VALID,0,VALID,98.0839,VALID,0.0509425,VALID,16.4341,VALID,124,VALID,1.1125,
2004-10-07, 00:31:00,VALID,920.456,VALID,0,VALID,97.5397,VALID,0.0509425,VALID,16.4311,VALID,125,VALID,1.0621,
2004-10-07, 00:32:00,VALID,920.437,VALID,0,VALID,97.7966,VALID,0.0679233,VALID,16.4376,VALID,133,VALID,1.07527,
2004-10-07, 00:33:00,VALID,920.398,VALID,0,VALID,98.0649,VALID,-0.0679233,VALID,16.4681,VALID,134,VALID,1.03034,
2004-10-07, 00:34:00,VALID,920.382,VALID,0,VALID,98.2124,VALID,-0.0679233,VALID,16.4973,VALID,133,VALID,0.858422,
2004-10-07, 00:35:00,VALID,920.338,VALID,0,VALID,98.2073,VALID,-0.0509425,VALID,16.5264,VALID,131,VALID,0.891959,
2004-10-07, 00:36:00,VALID,920.33,VALID,0,VALID,97.8462,VALID,-0.0169808,VALID,16.5294,VALID,121,VALID,0.629724,
2004-10-07, 00:37:00,VALID,920.321,VALID,0,VALID,97.2765,VALID,-0.0339617,VALID,16.4775,VALID,119,VALID,0.518787,
2004-10-07, 00:38:00,VALID,920.322,VALID,0,VALID,97.3464,VALID,-0.0679233,VALID,16.439,VALID,119,VALID,0.638672,
2004-10-07, 00:39:00,VALID,920.32,VALID,0,VALID,97.6491,VALID,-0.0169808,VALID,16.433,VALID,119,VALID,0.457127,
2004-10-07, 00:40:00,VALID,920.335,VALID,0,VALID,96.8263,VALID,0,VALID,16.3616,VALID,119,VALID,0.231707,
2004-10-07, 00:41:00,VALID,920.337,VALID,0,VALID,97.6554,VALID,-0.0509425,VALID,16.3457,VALID,119,VALID,0.296503,
2004-10-07, 00:42:00,VALID,920.314,VALID,0,VALID,98.0483,VALID,-0.0339617,VALID,16.3711,VALID,119,VALID,0.0102896,
2004-10-07, 00:43:00,VALID,920.303,VALID,0,VALID,98.2353,VALID,0,VALID,16.3999,VALID,119,VALID,0.0173828,
2004-10-07, 00:44:00,VALID,920.271,VALID,0,VALID,98.5659,VALID,-0.0339617,VALID,16.4554,VALID,119,VALID,0.310417,
2004-10-07, 00:45:00,VALID,920.24,VALID,0,VALID,98.4349,VALID,-0.0509425,VALID,16.4907,VALID,119,VALID,0.426258,
2004-10-07, 00:46:00,VALID,920.224,VALID,0,VALID,98.0534,VALID,-0.0169808,VALID,16.4907,VALID,119,VALID,0.330357,
2004-10-07, 00:47:00,VALID,920.214,VALID,0,VALID,97.8398,VALID,-0.0169808,VALID,16.4685,VALID,119,VALID,0.283975,
2004-10-07, 00:48:00,VALID,920.197,VALID,0,VALID,97.8233,VALID,0.0339617,VALID,16.4543,VALID,119,VALID,0.34157,
2004-10-07, 00:49:00,VALID,920.199,VALID,0,VALID,97.9708,VALID,0.0509425,VALID,16.464,VALID,119,VALID,0.432106,
2004-10-07, 00:50:00,VALID,920.182,VALID,0,VALID,97.8067,VALID,0.0509425,VALID,16.464,VALID,119,VALID,0.596484,
2004-10-07, 00:51:00,VALID,920.16,VALID,0,VALID,97.7368,VALID,0.0509425,VALID,16.4571,VALID,119,VALID,0.747142,
2004-10-07, 00:52:00,VALID,920.147,VALID,0,VALID,97.8754,VALID,0.0849042,VALID,16.4834,VALID,119,VALID,0.241629,
2004-10-07, 00:53:00,VALID,920.14,VALID,0,VALID,97.9568,VALID,0.0509425,VALID,16.5417,VALID,141,VALID,0.388579,
2004-10-07, 00:54:00,VALID,920.125,VALID,0,VALID,97.8106,VALID,0.101885,VALID,16.5634,VALID,169,VALID,0.39897,
2004-10-07, 00:55:00,VALID,920.098,VALID,0,VALID,97.6109,VALID,0.0509425,VALID,16.5862,VALID,169,VALID,0.463281,
2004-10-07, 00:56:00,VALID,920.089,VALID,0,VALID,97.5779,VALID,0.0849042,VALID,16.5834,VALID,153,VALID,0.547447,
2004-10-07, 00:57:00,VALID,920.051,VALID,0,VALID,98.0967,VALID,0.101885,VALID,16.5862,VALID,129,VALID,0.714658,
2004-10-07, 00:58:00,VALID,920.046,VALID,0,VALID,97.424,VALID,0.0169808,VALID,16.5866,VALID,111,VALID,0.564317,
2004-10-07, 00:59:00,VALID,920.034,VALID,0,VALID,96.8746,VALID,0.0509425,VALID,16.5057,VALID,104,VALID,0.283794,
2004-10-07, 01:00:00,VALID,920.047,VALID,0,VALID,96.7945,VALID,0.0679233,VALID,16.4777,VALID,184,VALID,0.608103,
2004-10-07, 01:01:00,VALID,920.034,VALID,0,VALID,97.6007,VALID,-0.0339617,VALID,16.5199,VALID,218,VALID,0.837271,
2004-10-07, 01:02:00,VALID,920.026,VALID,0,VALID,97.8856,VALID,-0.0339617,VALID,16.6236,VALID,174,VALID,0.888148,
2004-10-07, 01:03:00,VALID,920.011,VALID,0,VALID,97.5855,VALID,-0.0339617,VALID,16.6716,VALID,130,VALID,0.891369,
2004-10-07, 01:04:00,VALID,920.008,VALID,0,VALID,97.0374,VALID,0,VALID,16.6849,VALID,126,VALID,0.850229,
2004-10-07, 01:05:00,VALID,920.01,VALID,0,VALID,96.9904,VALID,-0.0339617,VALID,16.675,VALID,126,VALID,0.514291,
2004-10-07, 01:06:00,VALID,919.99,VALID,0,VALID,97.0794,VALID,-0.0169808,VALID,16.6812,VALID,126,VALID,0.381288,
2004-10-07, 01:07:00,VALID,919.977,VALID,0,VALID,96.937,VALID,-0.0169808,VALID,16.6845,VALID,126,VALID,0.357701,
2004-10-07, 01:08:00,VALID,919.962,VALID,0,VALID,97.1086,VALID,-0.0339617,VALID,16.6939,VALID,126,VALID,0.621007,
2004-10-07, 01:09:00,VALID,919.959,VALID,0,VALID,96.9497,VALID,-0.0169808,VALID,16.7296,VALID,126,VALID,0.816323,
2004-10-07, 01:10:00,VALID,919.938,VALID,0,VALID,96.4601,VALID,-0.0339617,VALID,16.7527,VALID,127,VALID,0.695313,
2004-10-07, 01:11:00,VALID,919.924,VALID,0,VALID,96.0176,VALID,0,VALID,16.7397,VALID,139,VALID,0.728016,
2004-10-07, 01:12:00,VALID,919.92,VALID,0,VALID,96.202,VALID,-0.0509425,VALID,16.7206,VALID,138,VALID,0.956936,
2004-10-07, 01:13:00,VALID,919.922,VALID,0,VALID,96.1778,VALID,-0.0339617,VALID,16.7008,VALID,131,VALID,0.942522,
2004-10-07, 01:14:00,VALID,919.935,VALID,0,VALID,95.9476,VALID,-0.0169808,VALID,16.6722,VALID,125,VALID,0.951042,
2004-10-07, 01:15:00,VALID,919.944,VALID,0,VALID,96.3075,VALID,-0.0509425,VALID,16.6623,VALID,125,VALID,1.1689,
2004-10-07, 01:16:00,VALID,919.954,VALID,0,VALID,96.2261,VALID,-0.0509425,VALID,16.6845,VALID,124,VALID,1.04833,
2004-10-07, 01:17:00,VALID,919.958,VALID,0,VALID,95.364,VALID,-0.0169808,VALID,16.7101,VALID,123,VALID,0.747514,
2004-10-07, 01:18:00,VALID,919.958,VALID,0,VALID,93.964,VALID,0,VALID,16.6328,VALID,119,VALID,0.440168,
2004-10-07, 01:19:00,VALID,919.934,VALID,0,VALID,94.437,VALID,-0.0169808,VALID,16.5132,VALID,119,VALID,0.365734,
2004-10-07, 01:20:00,VALID,919.934,VALID,0,VALID,96.0672,VALID,-0.0169808,VALID,16.481,VALID,119,VALID,0.194957,
2004-10-07, 01:21:00,VALID,919.934,VALID,0,VALID,96.1486,VALID,0,VALID,16.455,VALID,119,VALID,0.000372024,
2004-10-07, 01:22:00,VALID,919.925,VALID,0,VALID,96.4728,VALID,-0.0339617,VALID,16.4427,VALID,119,VALID,0.364769,
2004-10-07, 01:23:00,VALID,919.909,VALID,0,VALID,96.408,VALID,0,VALID,16.4134,VALID,119,VALID,0.329688,
2004-10-07, 01:24:00,VALID,919.895,VALID,0,VALID,96.2274,VALID,-0.0169808,VALID,16.3816,VALID,119,VALID,0.159722,
2004-10-07, 01:25:00,VALID,919.894,VALID,0,VALID,96.7869,VALID,-0.0169808,VALID,16.3332,VALID,119,VALID,0.324396,
2004-10-07, 01:26:00,VALID,919.895,VALID,0,VALID,97.012,VALID,0,VALID,16.336,VALID,119,VALID,0.482812,
2004-10-07, 01:27:00,VALID,919.899,VALID,0,VALID,97.1544,VALID,-0.0169808,VALID,16.3558,VALID,119,VALID,0.299924,
2004-10-07, 01:28:00,VALID,919.861,VALID,0,VALID,97.2421,VALID,0,VALID,16.3592,VALID,119,VALID,0.221912,
2004-10-07, 01:29:00,VALID,919.857,VALID,0,VALID,97.4202,VALID,-0.0339617,VALID,16.3523,VALID,119,VALID,0.420632,
2004-10-07, 01:30:00,VALID,919.835,VALID,0,VALID,97.2739,VALID,-0.0339617,VALID,16.3527,VALID,119,VALID,0.48125,
2004-10-07, 01:31:00,VALID,919.835,VALID,0,VALID,97.1735,VALID,-0.0509425,VALID,16.317,VALID,119,VALID,0.3621,
2004-10-07, 01:32:00,VALID,919.816,VALID,0,VALID,97.101,VALID,-0.0339617,VALID,16.2878,VALID,122,VALID,0.450648,
2004-10-07, 01:33:00,VALID,919.787,VALID,0,VALID,97.1341,VALID,-0.0679233,VALID,16.2688,VALID,135,VALID,0.812901,
2004-10-07, 01:34:00,VALID,919.775,VALID,0,VALID,97.7482,VALID,-0.0339617,VALID,16.2557,VALID,135,VALID,1.0637,
2004-10-07, 01:35:00,VALID,919.747,VALID,0,VALID,98.0928,VALID,-0.0339617,VALID,16.288,VALID,131,VALID,1.09455,
2004-10-07, 01:36:00,VALID,919.723,VALID,0,VALID,97.925,VALID,-0.0169808,VALID,16.3138,VALID,128,VALID,1.15092,
2004-10-07, 01:37:00,VALID,919.706,VALID,0,VALID,97.63,VALID,-0.0679233,VALID,16.3459,VALID,126,VALID,1.12593,
2004-10-07, 01:38:00,VALID,919.689,VALID,0,VALID,97.5066,VALID,-0.0509425,VALID,16.4265,VALID,127,VALID,1.51618,
2004-10-07, 01:39:00,VALID,919.691,VALID,0,VALID,97.0145,VALID,-0.0169808,VALID,16.5304,VALID,129,VALID,1.20417,
2004-10-07, 01:40:00,VALID,919.694,VALID,0,VALID,96.7526,VALID,-0.0169808,VALID,16.6008,VALID,138,VALID,1.09648,
2004-10-07, 01:41:00,VALID,919.69,VALID,0,VALID,96.5097,VALID,-0.0509425,VALID,16.6429,VALID,139,VALID,1.01389,
2004-10-07, 01:42:00,VALID,919.683,VALID,0,VALID,96.3419,VALID,0,VALID,16.6685,VALID,142,VALID,0.869549,
2004-10-07, 01:43:00,VALID,919.687,VALID,0,VALID,96.1168,VALID,0,VALID,16.6683,VALID,142,VALID,0.653201,
2004-10-07, 01:44:00,VALID,919.686,VALID,0,VALID,95.5802,VALID,0,VALID,16.6623,VALID,125,VALID,0.654251,
2004-10-07, 01:45:00,VALID,919.68,VALID,0,VALID,94.7651,VALID,-0.0339617,VALID,16.5657,VALID,122,VALID,0.285352,
2004-10-07, 01:46:00,VALID,919.65,VALID,0,VALID,95.5865,VALID,-0.0509425,VALID,16.4719,VALID,124,VALID,0.574751,
2004-10-07, 01:47:00,VALID,919.606,VALID,0,VALID,96.1727,VALID,0,VALID,16.4364,VALID,126,VALID,0.55814,
2004-10-07, 01:48:00,VALID,919.58,VALID,0,VALID,96.291,VALID,-0.0339617,VALID,16.3878,VALID,133,VALID,0.758539,
2004-10-07, 01:49:00,VALID,919.557,VALID,0,VALID,97.0374,VALID,0,VALID,16.3785,VALID,137,VALID,1.01526,
2004-10-07, 01:50:00,VALID,919.534,VALID,0,VALID,97.4316,VALID,-0.0169808,VALID,16.391,VALID,135,VALID,1.16406,
2004-10-07, 01:51:00,VALID,919.506,VALID,0,VALID,97.7762,VALID,0,VALID,16.4197,VALID,136,VALID,1.19736,
2004-10-07, 01:52:00,VALID,919.47,VALID,0,VALID,97.8411,VALID,0,VALID,16.4848,VALID,136,VALID,1.22656,
2004-10-07, 01:53:00,VALID,919.436,VALID,0,VALID,97.4075,VALID,0,VALID,16.5334,VALID,134,VALID,1.40792,
2004-10-07, 01:54:00,VALID,919.413,VALID,0,VALID,96.6623,VALID,-0.0169808,VALID,16.6012,VALID,130,VALID,1.37274,
2004-10-07, 01:55:00,VALID,919.39,VALID,0,VALID,96.0316,VALID,-0.0169808,VALID,16.6389,VALID,130,VALID,1.54325,
2004-10-07, 01:56:00,VALID,919.373,VALID,0,VALID,95.3373,VALID,-0.0169808,VALID,16.7169,VALID,131,VALID,1.51842,
2004-10-07, 01:57:00,VALID,919.358,VALID,0,VALID,94.7765,VALID,0,VALID,16.7783,VALID,132,VALID,1.43496,
2004-10-07, 01:58:00,VALID,919.353,VALID,0,VALID,94.4243,VALID,-0.0169808,VALID,16.8198,VALID,132,VALID,1.4593,
2004-10-07, 01:59:00,VALID,919.334,VALID,0,VALID,94.0453,VALID,-0.0169808,VALID,16.8746,VALID,130,VALID,1.28887,
2004-10-07, 02:00:00,VALID,919.325,VALID,0,VALID,93.6702,VALID,-0.0509425,VALID,16.9237,VALID,128,VALID,1.28906,
2004-10-07, 02:01:00,VALID,919.305,VALID,0,VALID,93.2697,VALID,0,VALID,16.9588,VALID,126,VALID,1.26605,
2004-10-07, 02:02:00,VALID,919.286,VALID,0,VALID,92.9492,VALID,0,VALID,16.9783,VALID,125,VALID,1.09341,
2004-10-07, 02:03:00,VALID,919.296,VALID,0,VALID,92.981,VALID,-0.0339617,VALID,16.959,VALID,123,VALID,1.09861,
2004-10-07, 02:04:00,VALID,919.291,VALID,0,VALID,93.1476,VALID,-0.0169808,VALID,16.92,VALID,120,VALID,0.863961,
2004-10-07, 02:05:00,VALID,919.304,VALID,0,VALID,93.3752,VALID,-0.0339617,VALID,16.8914,VALID,123,VALID,1.18872,
2004-10-07, 02:06:00,VALID,919.297,VALID,0,VALID,93.6524,VALID,0,VALID,16.869,VALID,127,VALID,1.17113,
2004-10-07, 02:07:00,VALID,919.285,VALID,0,VALID,93.9004,VALID,0,VALID,16.8458,VALID,120,VALID,1.26708,
2004-10-07, 02:08:00,VALID,919.294,VALID,0,VALID,94.0326,VALID,-0.0169808,VALID,16.8495,VALID,117,VALID,1.09728,
2004-10-07, 02:09:00,VALID,919.293,VALID,0,VALID,94.3136,VALID,0,VALID,16.8624,VALID,116,VALID,1.30934,
2004-10-07, 02:10:00,VALID,919.278,VALID,0,VALID,94.3403,VALID,-0.0169808,VALID,16.8721,VALID,113,VALID,1.36646,
2004-10-07, 02:11:00,VALID,919.281,VALID,0,VALID,94.2386,VALID,0,VALID,16.9168,VALID,103,VALID,1.2371,
2004-10-07, 02:12:00,VALID,919.266,VALID,0,VALID,93.8851,VALID,0,VALID,16.9456,VALID,100,VALID,1.00213,
2004-10-07, 02:13:00,VALID,919.265,VALID,0,VALID,93.5189,VALID,-0.0169808,VALID,16.9459,VALID,105,VALID,0.992188,
2004-10-07, 02:14:00,VALID,919.253,VALID,0,VALID,92.5537,VALID,0,VALID,16.9007,VALID,95,VALID,0.692042,
2004-10-07, 02:15:00,VALID,919.23,VALID,0,VALID,92.6758,VALID,0,VALID,16.7522,VALID,87,VALID,0.465234,
2004-10-07, 02:16:00,VALID,919.212,VALID,0,VALID,94.4332,VALID,-0.0169808,VALID,16.6262,VALID,108,VALID,0.554688,
2004-10-07, 02:17:00,VALID,919.19,VALID,0,VALID,95.1236,VALID,-0.0169808,VALID,16.5457,VALID,109,VALID,0.549419,
2004-10-07, 02:18:00,VALID,919.179,VALID,0,VALID,95.4962,VALID,-0.0169808,VALID,16.4911,VALID,109,VALID,0.570313,
2004-10-07, 02:19:00,VALID,919.147,VALID,0,VALID,95.6717,VALID,0,VALID,16.4195,VALID,116,VALID,0.86471,
2004-10-07, 02:20:00,VALID,919.14,VALID,0,VALID,95.9794,VALID,0,VALID,16.3779,VALID,129,VALID,1.02115,
2004-10-07, 02:21:00,VALID,919.125,VALID,0,VALID,96.4258,VALID,0,VALID,16.3844,VALID,122,VALID,1.29759,
2004-10-07, 02:22:00,VALID,919.138,VALID,0,VALID,96.5021,VALID,0,VALID,16.4328,VALID,123,VALID,1.36147,
2004-10-07, 02:23:00,VALID,919.131,VALID,0,VALID,96.4487,VALID,-0.0169808,VALID,16.5259,VALID,122,VALID,1.3734,
2004-10-07, 02:24:00,VALID,919.143,VALID,0,VALID,95.9451,VALID,-0.0169808,VALID,16.652,VALID,122,VALID,1.3168,
2004-10-07, 02:25:00,VALID,919.138,VALID,0,VALID,95.3589,VALID,-0.0169808,VALID,16.7684,VALID,121,VALID,1.29021,
2004-10-07, 02:26:00,VALID,919.134,VALID,0,VALID,95.0385,VALID,0,VALID,16.8712,VALID,114,VALID,1.35861,
2004-10-07, 02:27:00,VALID,919.128,VALID,0,VALID,94.423,VALID,-0.0169808,VALID,17.0039,VALID,115,VALID,1.39691,
2004-10-07, 02:28:00,VALID,919.126,VALID,0,VALID,93.7783,VALID,0,VALID,17.1261,VALID,114,VALID,1.30806,
2004-10-07, 02:29:00,VALID,919.118,VALID,0,VALID,92.7012,VALID,-0.0169808,VALID,17.2494,VALID,118,VALID,0.618118,
2004-10-07, 02:30:00,VALID,919.121,VALID,0,VALID,91.3839,VALID,0,VALID,17.2268,VALID,124,VALID,0.377668,
2004-10-07, 02:31:00,VALID,919.115,VALID,0,VALID,91.9828,VALID,0,VALID,17.1199,VALID,124,VALID,0.180043,
2004-10-07, 02:32:00,VALID,919.091,VALID,0,VALID,92.4456,VALID,0,VALID,16.9848,VALID,124,VALID,0.421503,
2004-10-07, 02:33:00,VALID,919.082,VALID,0,VALID,93.0128,VALID,-0.0169808,VALID,16.8426,VALID,125,VALID,0.523996,
2004-10-07, 02:34:00,VALID,919.07,VALID,0,VALID,93.3154,VALID,0,VALID,16.6937,VALID,125,VALID,0.723514,
2004-10-07, 02:35:00,VALID,919.064,VALID,0,VALID,94.2297,VALID,-0.0509425,VALID,16.5679,VALID,125,VALID,0.938616,
2004-10-07, 02:36:00,VALID,919.064,VALID,0,VALID,94.704,VALID,-0.0339617,VALID,16.4911,VALID,125,VALID,0.837054,
2004-10-07, 02:37:00,VALID,919.043,VALID,0,VALID,95.3373,VALID,0,VALID,16.4293,VALID,125,VALID,0.833822,
2004-10-07, 02:38:00,VALID,919.062,VALID,0,VALID,95.8485,VALID,-0.0679233,VALID,16.4235,VALID,125,VALID,1.08771,
2004-10-07, 02:39:00,VALID,919.049,VALID,0,VALID,96.0189,VALID,-0.0509425,VALID,16.4396,VALID,132,VALID,1.16229,
2004-10-07, 02:40:00,VALID,919.042,VALID,0,VALID,96.0532,VALID,-0.0339617,VALID,16.4657,VALID,134,VALID,1.12591,
2004-10-07, 02:41:00,VALID,919.028,VALID,0,VALID,95.9171,VALID,-0.0679233,VALID,16.4913,VALID,133,VALID,1.0774,
2004-10-07, 02:42:00,VALID,919.003,VALID,0,VALID,95.851,VALID,-0.0849042,VALID,16.4947,VALID,132,VALID,1.08066,
2004-10-07, 02:43:00,VALID,918.995,VALID,0,VALID,95.7709,VALID,-0.0679233,VALID,16.4911,VALID,132,VALID,1.02827,
2004-10-07, 02:44:00,VALID,918.975,VALID,0,VALID,95.7709,VALID,-0.0509425,VALID,16.5038,VALID,131,VALID,1.03107,
2004-10-07, 02:45:00,VALID,918.962,VALID,0,VALID,95.7137,VALID,-0.0509425,VALID,16.4911,VALID,130,VALID,1.06523,
2004-10-07, 02:46:00,VALID,918.939,VALID,0,VALID,95.9667,VALID,-0.0509425,VALID,16.4911,VALID,129,VALID,1.05564,
2004-10-07, 02:47:00,VALID,918.933,VALID,0,VALID,95.823,VALID,-0.0339617,VALID,16.4947,VALID,130,VALID,0.968936,
2004-10-07, 02:48:00,VALID,918.923,VALID,0,VALID,95.701,VALID,0,VALID,16.4713,VALID,128,VALID,1.07813,
2004-10-07, 02:49:00,VALID,918.915,VALID,0,VALID,95.6374,VALID,0.0339617,VALID,16.4223,VALID,128,VALID,0.985863,
2004-10-07, 02:50:00,VALID,918.911,VALID,0,VALID,96.0901,VALID,0.0339617,VALID,16.39,VALID,131,VALID,1.16964,
2004-10-07, 02:51:00,VALID,918.91,VALID,0,VALID,96.4957,VALID,0,VALID,16.4225,VALID,131,VALID,1.31468,
2004-10-07, 02:52:00,VALID,918.92,VALID,0,VALID,96.1193,VALID,0,VALID,16.4644,VALID,130,VALID,1.03906,
2004-10-07, 02:53:00,VALID,918.923,VALID,0,VALID,95.8269,VALID,0.0169808,VALID,16.4777,VALID,131,VALID,1.12326,
2004-10-07, 02:54:00,VALID,918.926,VALID,0,VALID,95.9006,VALID,0.0169808,VALID,16.487,VALID,134,VALID,1.07304,
2004-10-07, 02:55:00,VALID,918.918,VALID,0,VALID,95.8548,VALID,0.0169808,VALID,16.4965,VALID,135,VALID,0.926339,
2004-10-07, 02:56:00,VALID,918.915,VALID,0,VALID,95.8866,VALID,0,VALID,16.5197,VALID,140,VALID,1.01472,
2004-10-07, 02:57:00,VALID,918.893,VALID,0,VALID,95.7696,VALID,0.0169808,VALID,16.5388,VALID,137,VALID,1.10442,
2004-10-07, 02:58:00,VALID,918.874,VALID,0,VALID,95.3792,VALID,0.0169808,VALID,16.5614,VALID,124,VALID,0.887695,
2004-10-07, 02:59:00,VALID,918.855,VALID,0,VALID,95.275,VALID,0,VALID,16.5582,VALID,114,VALID,0.946378,
2004-10-07, 03:00:00,VALID,918.828,VALID,0,VALID,95.4098,VALID,0,VALID,16.5935,VALID,109,VALID,0.899639,
2004-10-07, 03:01:00,VALID,918.83,VALID,0,VALID,95.3347,VALID,0.0169808,VALID,16.6679,VALID,112,VALID,1.00898,
2004-10-07, 03:02:00,VALID,918.809,VALID,0,VALID,94.8706,VALID,0.0169808,VALID,16.7744,VALID,113,VALID,1.04581,
2004-10-07, 03:03:00,VALID,918.801,VALID,0,VALID,94.1026,VALID,0.0509425,VALID,16.8704,VALID,115,VALID,1.07648,
2004-10-07, 03:04:00,VALID,918.813,VALID,0,VALID,93.3739,VALID,0,VALID,16.9777,VALID,118,VALID,1.14657,
2004-10-07, 03:05:00,VALID,918.811,VALID,0,VALID,92.747,VALID,0.0339617,VALID,17.0579,VALID,111,VALID,0.970703,
2004-10-07, 03:06:00,VALID,918.796,VALID,0,VALID,92.2117,VALID,0.0169808,VALID,17.0969,VALID,109,VALID,0.923437,
2004-10-07, 03:07:00,VALID,918.772,VALID,0,VALID,92.143,VALID,0,VALID,17.0965,VALID,98,VALID,0.819169,
2004-10-07, 03:08:00,VALID,918.77,VALID,0,VALID,92.1888,VALID,0.0339617,VALID,17.1094,VALID,96,VALID,0.686047,
2004-10-07, 03:09:00,VALID,918.754,VALID,0,VALID,92.2791,VALID,0.0339617,VALID,17.0769,VALID,99,VALID,0.79375,
2004-10-07, 03:10:00,VALID,918.759,VALID,0,VALID,91.9853,VALID,0.0509425,VALID,17.045,VALID,109,VALID,1.25692,
2004-10-07, 03:11:00,VALID,918.747,VALID,0,VALID,91.6242,VALID,0.0509425,VALID,17.0579,VALID,114,VALID,1.2996,
2004-10-07, 03:12:00,VALID,918.741,VALID,0,VALID,91.4563,VALID,0,VALID,17.0808,VALID,112,VALID,1.29386,
2004-10-07, 03:13:00,VALID,918.741,VALID,0,VALID,91.3127,VALID,0,VALID,17.0969,VALID,105,VALID,1.03162,
2004-10-07, 03:14:00,VALID,918.732,VALID,0,VALID,91.1804,VALID,0.0169808,VALID,17.113,VALID,100,VALID,1.21218,
2004-10-07, 03:15:00,VALID,918.722,VALID,0,VALID,90.2674,VALID,0,VALID,17.1358,VALID,90,VALID,0.931362,
2004-10-07, 03:16:00,VALID,918.706,VALID,0,VALID,89.9508,VALID,0,VALID,17.0162,VALID,85,VALID,0.610577,
2004-10-07, 03:17:00,VALID,918.703,VALID,0,VALID,91.1461,VALID,0,VALID,16.8226,VALID,84,VALID,0.569792,
2004-10-07, 03:18:00,VALID,918.705,VALID,0,VALID,92.4317,VALID,0.0339617,VALID,16.6223,VALID,84,VALID,0.611683,
2004-10-07, 03:19:00,VALID,918.71,VALID,0,VALID,93.3637,VALID,0.0169808,VALID,16.4679,VALID,84,VALID,0.427604,
2004-10-07, 03:20:00,VALID,918.726,VALID,0,VALID,94.1801,VALID,0.0169808,VALID,16.3321,VALID,114,VALID,0.482088,
2004-10-07, 03:21:00,VALID,918.743,VALID,0,VALID,94.9418,VALID,0.0169808,VALID,16.245,VALID,127,VALID,1.10029,
2004-10-07, 03:22:00,VALID,918.756,VALID,0,VALID,95.2559,VALID,0.0169808,VALID,16.219,VALID,126,VALID,1.11665,
2004-10-07, 03:23:00,VALID,918.774,VALID,0,VALID,95.392,VALID,0.0339617,VALID,16.2483,VALID,124,VALID,1.0322,
2004-10-07, 03:24:00,VALID,918.782,VALID,0,VALID,94.9787,VALID,0,VALID,16.2934,VALID,124,VALID,0.903011,
2004-10-07, 03:25:00,VALID,918.789,VALID,0,VALID,94.8617,VALID,0.0339617,VALID,16.3289,VALID,125,VALID,1.17642,
2004-10-07, 03:26:00,VALID,918.806,VALID,0,VALID,94.643,VALID,0.0509425,VALID,16.358,VALID,125,VALID,1.14631,
2004-10-07, 03:27:00,VALID,918.813,VALID,0,VALID,94.7307,VALID,0.0339617,VALID,16.3709,VALID,125,VALID,1.12409,
2004-10-07, 03:28:00,VALID,918.809,VALID,0,VALID,94.8884,VALID,0.0509425,VALID,16.4027,VALID,124,VALID,1.01829,
2004-10-07, 03:29:00,VALID,918.816,VALID,0,VALID,94.5718,VALID,0.0169808,VALID,16.4352,VALID,126,VALID,0.687674,
2004-10-07, 03:30:00,VALID,918.82,VALID,0,VALID,93.8012,VALID,0,VALID,16.4253,VALID,120,VALID,0.527778,
2004-10-07, 03:31:00,VALID,918.816,VALID,0,VALID,93.4578,VALID,0.0509425,VALID,16.3807,VALID,120,VALID,0.599019,
2004-10-07, 03:32:00,VALID,918.819,VALID,0,VALID,93.6054,VALID,0.0509425,VALID,16.2936,VALID,120,VALID,0.289463,
2004-10-07, 03:33:00,VALID,918.826,VALID,0,VALID,93.7287,VALID,0,VALID,16.1611,VALID,120,VALID,0.265625,